Wrangell, AK

10:56 AM AKDT on June 26, 2017 (GMT -0800)
Wrangell

Weather History for PAWG - March, 2012

Change the Weather History Date:

Monday, March 12, 2012

  Actual Average Record
Temperature  
Mean Temperature 36 °F -  
Max Temperature 42 °F 43 °F 55 °F (1981)
Min Temperature 30 °F 31 °F 18 °F (1953)
Degree Days  
Heating Degree Days 29    
Moisture  
Dew Point 25 °F    
Average Humidity 68    
Maximum Humidity 87    
Minimum Humidity 39    
Precipitation  
Precipitation 0.00 in - - ()
Sea Level Pressure  
Sea Level Pressure 29.15 in    
Wind  
Wind Speed 7 mph (ESE)    
Max Wind Speed 13 mph    
Max Gust Speed 17 mph    
Visibility 10 miles    
Events      
Averages and records for this station are not official NWS values.
T = Trace of Precipitation, MM = Missing Value Source: NWS Daily Summary

Daily Weather History Graph

Daily Weather History Graph

Search for Another Location

Airport or City:

Trip Planner

Search our weather history database for the weather conditions in past years. The results will help you decide how hot, cold, wet, or windy it might be!

Date:

Astronomy

Mar. 12, 2012 Rise Set
Actual Time 7:11 AM AKDT 6:48 PM AKDT
Civil Twilight 6:33 AM AKDT 7:25 PM AKDT
Nautical Twilight 5:49 AM AKDT 8:09 PM AKDT
Astronomical Twilight 5:04 AM AKDT 8:55 PM AKDT
Moon 12:25 AM AKDT (3/12) 8:28 AM AKDT (3/12)
Length of Visible Light 12h 51m
Length of Day
11h 36m
Waning Gibbous, 74% of the Moon is Illuminated
Mar 12
Waning Gibbous
Mar 14
Last Quarter
Mar 22
New
Mar 30
First Quarter
Apr 6
Full

Hourly Weather History & Observations

Time (AKDT) Temp. Windchill Dew Point Humidity Pressure Visibility Wind Dir Wind Speed Gust Speed Precip Events Conditions
12:16 AM 33.8 °F 26.4 °F 30.2 °F 87% 29.30 in 10.0 mi ESE 9.2 mph - N/A   Clear
12:36 AM 35.6 °F 29.2 °F 28.4 °F 75% 29.30 in 10.0 mi ESE 8.1 mph - N/A   Clear
12:56 AM 33.8 °F 28.6 °F 28.4 °F 81% 29.30 in 10.0 mi SE 5.8 mph - N/A   Clear
1:16 AM 33.8 °F 28.6 °F 28.4 °F 81% 29.30 in 10.0 mi SE 5.8 mph - N/A   Clear
1:36 AM 32.0 °F 27.5 °F 28.4 °F 87% 29.30 in 10.0 mi SSE 4.6 mph - N/A   Clear
1:56 AM 32.0 °F 27.5 °F 28.4 °F 87% 29.31 in 10.0 mi SE 4.6 mph - N/A   Clear
2:16 AM 33.8 °F 28.6 °F 28.4 °F 81% 29.31 in 10.0 mi ESE 5.8 mph - N/A   Clear
2:36 AM 32.0 °F 27.5 °F 26.6 °F 80% 29.31 in 10.0 mi SE 4.6 mph - N/A   Partly Cloudy
2:56 AM 32.0 °F 24.8 °F 28.4 °F 87% 29.31 in 10.0 mi SE 8.1 mph - N/A   Mostly Cloudy
3:16 AM 33.8 °F 26.4 °F 26.6 °F 75% 29.31 in 10.0 mi SE 9.2 mph - N/A   Mostly Cloudy
3:36 AM 33.8 °F 25.3 °F 24.8 °F 70% 29.32 in 10.0 mi ESE 11.5 mph - N/A   Overcast
3:56 AM 33.8 °F 27.7 °F 24.8 °F 70% 29.31 in 10.0 mi ESE 6.9 mph - N/A   Overcast
4:16 AM 33.8 °F 26.4 °F 24.8 °F 70% 29.31 in 10.0 mi East 9.2 mph - N/A   Overcast
4:36 AM 33.8 °F 24.8 °F 23.0 °F 65% 29.31 in 10.0 mi East 12.7 mph - N/A   Overcast
4:56 AM 33.8 °F 25.8 °F 26.6 °F 75% 29.31 in 10.0 mi East 10.4 mph - N/A   Overcast
5:16 AM 33.8 °F 27.7 °F 24.8 °F 70% 29.31 in 10.0 mi ESE 6.9 mph - N/A   Mostly Cloudy
5:36 AM 30.2 °F 21.9 °F 26.6 °F 86% 29.29 in 10.0 mi East 9.2 mph - N/A   Mostly Cloudy
5:56 AM 32.0 °F 23.6 °F 26.6 °F 80% 29.28 in 10.0 mi East 10.4 mph - N/A   Scattered Clouds
6:16 AM 32.0 °F 26.4 °F 26.6 °F 80% 29.27 in 10.0 mi East 5.8 mph - N/A   Scattered Clouds
6:36 AM 30.2 °F 24.3 °F 26.6 °F 86% 29.26 in 10.0 mi East 5.8 mph - N/A   Scattered Clouds
6:56 AM 32.0 °F 25.6 °F 26.6 °F 80% 29.25 in 10.0 mi North 6.9 mph - N/A   Scattered Clouds
7:16 AM 32.0 °F 24.8 °F 26.6 °F 80% 29.24 in 10.0 mi North 8.1 mph - N/A   Scattered Clouds
7:36 AM 32.0 °F 25.6 °F 26.6 °F 80% 29.22 in 10.0 mi NNW 6.9 mph - N/A   Scattered Clouds
7:56 AM 30.2 °F - 24.8 °F 80% 29.21 in 10.0 mi Calm Calm - N/A   Scattered Clouds
8:16 AM 30.2 °F 22.6 °F 24.8 °F 80% 29.19 in 10.0 mi NW 8.1 mph - N/A   Scattered Clouds
8:36 AM 32.0 °F 24.2 °F 24.8 °F 75% 29.17 in 10.0 mi NNW 9.2 mph - N/A   Scattered Clouds
8:56 AM 33.8 °F - 24.8 °F 70% 29.16 in 10.0 mi Calm Calm - N/A   Scattered Clouds
9:16 AM 33.8 °F 28.6 °F 26.6 °F 75% 29.15 in 10.0 mi NW 5.8 mph - N/A   Scattered Clouds
9:36 AM 33.8 °F 28.6 °F 26.6 °F 75% 29.14 in 10.0 mi NW 5.8 mph - N/A   Scattered Clouds
9:56 AM 33.8 °F 29.6 °F 26.6 °F 75% 29.13 in 10.0 mi NNW 4.6 mph - N/A   Scattered Clouds
10:16 AM 35.6 °F - 24.8 °F 65% 29.12 in 10.0 mi Calm Calm - N/A   Scattered Clouds
10:36 AM 35.6 °F 28.0 °F 24.8 °F 65% 29.11 in 10.0 mi NNW 10.4 mph - N/A   Scattered Clouds
10:56 AM 35.6 °F 30.7 °F 24.8 °F 65% 29.10 in 10.0 mi NNW 5.8 mph - N/A   Scattered Clouds
11:16 AM 37.4 °F 33.8 °F 24.8 °F 60% 29.09 in 10.0 mi North 4.6 mph - N/A   Scattered Clouds
11:36 AM 37.4 °F 32.1 °F 21.2 °F 52% 29.08 in 10.0 mi North 6.9 mph - N/A   Scattered Clouds
11:56 AM 37.4 °F 31.4 °F 23.0 °F 56% 29.07 in 10.0 mi NNW 8.1 mph - N/A   Scattered Clouds
1:24 PM 41.0 °F 33.9 °F 21.2 °F 45% 29.00 in 10.0 mi NE 12.7 mph - N/A   Scattered Clouds
1:45 PM 41.0 °F 34.3 °F 19.4 °F 42% 29.00 in 10.0 mi NE 11.5 mph 17.3 mph N/A   Scattered Clouds
2:45 PM 42.8 °F 39.3 °F 19.4 °F 39% 28.98 in 10.0 mi North 5.8 mph - N/A   Scattered Clouds
3:45 PM 42.8 °F 40.1 °F 19.4 °F 39% 28.96 in 10.0 mi NE 4.6 mph - N/A   Scattered Clouds
5:56 PM 39.2 °F 37.0 °F 19.4 °F 45% 28.98 in 10.0 mi SSE 3.5 mph - N/A   Mostly Cloudy
6:16 PM 39.2 °F 37.0 °F 19.4 °F 45% 28.98 in 10.0 mi SE 3.5 mph - N/A   Overcast
6:36 PM 39.2 °F - 19.4 °F 45% 28.99 in 10.0 mi Calm Calm - N/A   Overcast
6:56 PM 37.4 °F 34.9 °F 21.2 °F 52% 28.99 in 10.0 mi SSE 3.5 mph - N/A   Overcast
7:16 PM 35.6 °F 32.8 °F 19.4 °F 52% 28.99 in 10.0 mi South 3.5 mph - N/A   Overcast
7:36 PM 35.6 °F 32.8 °F 19.4 °F 52% 28.99 in 10.0 mi SSE 3.5 mph - N/A   Overcast
7:56 PM 35.6 °F 32.8 °F 21.2 °F 56% 29.00 in 10.0 mi SE 3.5 mph - N/A   Overcast
8:16 PM 35.6 °F 32.8 °F 19.4 °F 52% 29.00 in 10.0 mi SSE 3.5 mph - N/A   Overcast
8:36 PM 35.6 °F - 21.2 °F 56% 29.01 in 10.0 mi Calm Calm - N/A   Overcast
8:56 PM 33.8 °F 30.8 °F 23.0 °F 65% 29.01 in 10.0 mi SE 3.5 mph - N/A   Overcast
9:16 PM 35.6 °F 32.8 °F 24.8 °F 65% 29.01 in 10.0 mi SE 3.5 mph - N/A   Overcast
9:36 PM 35.6 °F 30.7 °F 24.8 °F 65% 29.01 in 10.0 mi SE 5.8 mph - N/A   Overcast
9:56 PM 35.6 °F 29.9 °F 26.6 °F 70% 29.02 in 10.0 mi SE 6.9 mph - N/A   Overcast
10:16 PM 35.6 °F 29.9 °F 26.6 °F 70% 29.02 in 10.0 mi SE 6.9 mph - N/A   Overcast
10:36 PM 33.8 °F 27.7 °F 26.6 °F 75% 29.02 in 10.0 mi SE 6.9 mph - N/A   Overcast
10:56 PM 33.8 °F 28.6 °F 26.6 °F 75% 29.03 in 10.0 mi SSE 5.8 mph - N/A   Overcast
11:16 PM 33.8 °F 29.6 °F 26.6 °F 75% 29.04 in 10.0 mi SSE 4.6 mph - N/A   Overcast
11:36 PM 35.6 °F 31.7 °F 28.4 °F 75% 29.04 in 10.0 mi SE 4.6 mph - N/A   Overcast
11:56 PM 35.6 °F - 28.4 °F 75% 29.05 in 10.0 mi Calm Calm - N/A   Overcast